DW9924 Weather Reports


Display with metric or nautical units.
time (UTC)temp
F
wind
direction
speed
MPH
gust
MPH
rain 1hr
in
rain 24hr
in
rain mn
in
humidity
%
barometer
mb
20260903103404 83 172 2.0 3.0 0.00 0.00 0.00 73 1019.6
20260903101907 82 186 1.0 3.0 0.00 0.00 0.00 74 1019.6
20260903101407 82 183 1.0 3.0 0.00 0.00 0.00 73 1019.5
20260903100906 82 200 1.0 3.0 0.00 0.00 0.00 75 1019.6
20260903100404 82 182 1.0 5.0 0.00 0.00 0.00 75 1019.7
20260903094904 81 173 1.0 3.0 0.00 0.00 0.00 74 1019.8
20260903094405 82 219 1.0 3.0 0.00 0.00 0.00 74 1019.8
20260903093904 81 172 1.0 3.0 0.00 0.00 0.00 74 1019.8
20260903093407 82 230 1.0 3.0 0.00 0.00 0.00 74 1019.9
20260903091908 81 165 1.0 3.0 0.00 0.00 0.00 75 1019.9
20260903091407 81 249 2.0 3.0 0.00 0.00 0.00 74 1019.9
20260903090907 81 242 1.0 3.0 0.00 0.00 0.00 74 1019.9
20260903090408 81 228 1.0 3.0 0.00 0.00 0.00 74 1019.9
20260903084907 80 244 2.0 3.0 0.00 0.00 0.00 76 1019.8
20260903084407 80 174 1.0 3.0 0.00 0.00 0.00 77 1019.7
20260903081907 80 231 1.0 3.0 0.00 0.00 0.00 76 1019.5
20260903080907 80 224 0.0 3.0 0.00 0.00 0.00 75 1019.5
20260903074907 80 220 1.0 2.0 0.00 0.00 0.00 78 1019.4
20260903074406 80 250 0.0 3.0 0.00 0.00 0.00 81 1019.5
20260903073907 80 303 0.0 2.0 0.00 0.00 0.00 83 1019.4
20260903073407 79 292 0.0 2.0 0.00 0.00 0.00 84 1019.3
20260903071407 77 301 0.0 2.0 0.00 0.00 0.00 89 1019.4
20260903064907 75 331 0.0 1.0 0.00 0.00 0.00 91 1019.3
20260903064407 75 331 0.0 0.0 0.00 0.00 0.00 91 1019.3
20260903063906 74 331 0.0 0.0 0.00 0.00 0.00 90 1019.2
20260903063406 74 331 0.0 0.0 0.00 0.00 0.00 90 1019.2
20260903061906 73 331 0.0 0.0 0.00 0.00 0.00 90 1019.2
20260903061406 73 331 0.0 0.0 0.00 0.00 0.00 90 1019.1
20260903060907 73 331 1.0 1.0 0.00 0.00 0.00 90 1019.1
20260903060407 73 311 1.0 3.0 0.00 0.00 0.00 90 1019.0
20260903054906 73 5 0.0 2.0 0.00 0.00 0.00 90 1018.9
20260903053906 73 10 1.0 2.0 0.00 0.00 0.00 90 1018.8
20260903051907 73 30 1.0 2.0 0.00 0.00 0.00 90 1018.7
20260903051406 73 30 1.0 2.0 0.00 0.00 0.00 90 1018.7
20260903050906 73 27 1.0 2.0 0.00 0.00 0.00 90 1018.6
20260903050406 73 35 1.0 3.0 0.00 0.00 0.00 90 1018.7
20260903044907 73 27 2.0 3.0 0.00 0.00 0.00 90 1018.5
20260903044406 73 35 2.0 3.0 0.00 0.00 0.00 90 1018.5
20260903043407 73 16 1.0 3.0 0.00 0.00 0.00 90 1018.4
20260903041907 72 29 2.0 3.0 0.00 0.00 0.00 89 1018.4
20260903041407 72 30 2.0 3.0 0.00 0.00 0.00 89 1018.4
20260903040906 72 29 2.0 3.0 0.00 0.00 0.00 89 1018.5
20260903040406 72 32 1.0 3.0 0.00 0.00 0.00 89 1018.4
20260903034406 73 23 1.0 2.0 0.00 0.00 0.00 89 1018.3
20260903033906 73 22 1.0 2.0 0.00 0.00 0.00 89 1018.3
20260903033406 73 26 1.0 2.0 0.00 0.00 0.00 89 1018.3
20260903031906 73 39 1.0 2.0 0.00 0.00 0.00 89 1018.3
20260903031406 73 40 2.0 3.0 0.00 0.00 0.00 89 1018.3
20260903030907 73 39 2.0 3.0 0.00 0.00 0.00 89 1018.3
20260903030406 73 28 1.0 2.0 0.00 0.00 0.00 89 1018.3
20260903024907 73 29 2.0 2.0 0.00 0.00 0.00 89 1018.4
20260903024406 73 17 1.0 2.0 0.00 0.00 0.00 88 1018.4
20260903023906 73 18 1.0 3.0 0.00 0.00 0.00 88 1018.4
20260903023406 73 10 1.0 3.0 0.00 0.00 0.00 88 1018.5
20260903021906 73 5 1.0 2.0 0.00 0.00 0.00 88 1018.4
20260903020906 73 31 1.0 2.0 0.00 0.00 0.00 88 1018.5
20260903020406 73 28 1.0 3.0 0.00 0.00 0.00 88 1018.6
20260903014906 73 30 1.0 2.0 0.00 0.00 0.00 88 1018.6
20260903014407 73 23 1.0 2.0 0.00 0.00 0.00 88 1018.6
20260903013906 73 35 2.0 3.0 0.00 0.00 0.00 88 1018.5
20260903013407 73 18 1.0 3.0 0.00 0.00 0.00 87 1018.5
20260903011906 73 35 2.0 3.0 0.00 0.00 0.00 87 1018.5
20260903011406 74 36 1.0 2.0 0.00 0.00 0.00 87 1018.5
20260903010906 74 33 1.0 2.0 0.00 0.00 0.00 87 1018.5
20260903010406 74 27 1.0 3.0 0.00 0.00 0.00 87 1018.6
20260903004906 74 5 1.0 3.0 0.00 0.00 0.00 87 1018.6
20260903003906 74 19 2.0 3.0 0.00 0.00 0.00 86 1018.6
20260903001406 74 346 1.0 3.0 0.00 0.00 0.00 87 1018.7
20260903000905 74 356 2.0 3.0 0.00 0.00 0.00 87 1018.7
20260903000406 74 22 2.0 3.0 0.00 0.00 0.00 87 1018.6
20260902234906 74 356 2.0 3.0 0.00 0.00 0.00 86 1018.7
20260902234406 74 15 2.0 3.0 0.00 0.00 0.00 86 1018.8
20260902233906 74 2 1.0 3.0 0.00 0.00 0.00 86 1018.8
20260902233406 74 0 0.0 3.0 0.00 0.00 0.00 86 1018.8
20260902231905 74 21 1.0 2.0 0.00 0.00 0.00 86 1018.7
20260902231406 74 28 1.0 2.0 0.00 0.00 0.00 85 1018.7
20260902230906 74 24 1.0 3.0 0.00 0.00 0.00 85 1018.7
20260902230406 74 26 1.0 3.0 0.00 0.00 0.00 85 1018.7
20260902224907 74 356 1.0 3.0 0.00 0.00 0.00 85 1018.7
20260902224409 74 5 1.0 2.0 0.00 0.00 0.00 85 1018.7
20260902223905 74 5 1.0 2.0 0.00 0.00 0.00 85 1018.6
20260902223408 75 10 2.0 3.0 0.00 0.00 0.00 85 1018.7
20260902221405 75 22 2.0 3.0 0.00 0.00 0.00 84 1018.7
20260902220405 75 9 1.0 3.0 0.00 0.00 0.00 84 1018.8
20260902214906 75 12 1.0 3.0 0.00 0.00 0.00 84 1018.7
20260902214406 75 0 1.0 3.0 0.00 0.00 0.00 84 1018.7
20260902213906 75 18 1.0 3.0 0.00 0.00 0.00 84 1018.7
20260902211906 76 48 1.0 2.0 0.00 0.00 0.00 84 1018.6
20260902211406 76 15 1.0 2.0 0.00 0.00 0.00 84 1018.6
20260902210907 76 75 0.0 2.0 0.00 0.00 0.00 84 1018.7
20260902210406 76 16 1.0 2.0 0.00 0.00 0.00 84 1018.6
20260902204907 76 23 1.0 2.0 0.00 0.00 0.00 83 1018.5
20260902204406 76 5 0.0 1.0 0.00 0.00 0.00 83 1018.6
20260902203405 76 27 0.0 2.0 0.00 0.00 0.00 83 1018.6
20260902201906 77 36 0.0 2.0 0.00 0.00 0.00 83 1018.6
20260902200905 77 36 0.0 0.0 0.00 0.00 0.00 83 1018.6
20260902194906 77 36 0.0 0.0 0.00 0.00 0.00 83 1018.5
20260902193905 77 36 0.0 0.0 0.00 0.00 0.00 83 1018.4
20260902193406 77 36 0.0 2.0 0.00 0.00 0.00 82 1018.4
20260902191906 77 44 0.0 1.0 0.00 0.00 0.00 82 1018.4
20260902191406 77 44 0.0 0.0 0.00 0.00 0.00 82 1018.3
20260902190906 77 44 0.0 0.0 0.00 0.00 0.00 81 1018.3
20260902184905 78 218 0.0 1.0 0.00 0.00 0.00 81 1018.2
20260902184405 78 218 0.0 0.0 0.00 0.00 0.00 81 1018.2
20260902183906 78 218 0.0 1.0 0.00 0.00 0.00 81 1018.1
20260902183405 78 218 0.0 0.0 0.00 0.00 0.00 81 1018.1
20260902181906 78 218 0.0 1.0 0.00 0.00 0.00 80 1018.0
20260902181405 78 218 0.0 0.0 0.00 0.00 0.00 80 1018.0
20260902180905 78 218 0.0 0.0 0.00 0.00 0.00 80 1017.8
20260902180405 78 218 0.0 0.0 0.00 0.00 0.00 80 1017.8
20260902174905 78 218 0.0 0.0 0.00 0.00 0.00 79 1017.8
20260902174406 78 218 0.0 1.0 0.00 0.00 0.00 79 1017.9
20260902173406 79 218 0.0 2.0 0.00 0.00 0.00 79 1017.8
20260902171906 79 218 0.0 1.0 0.00 0.00 0.00 78 1017.8
20260902171406 79 218 0.0 1.0 0.00 0.00 0.00 78 1017.8
20260902170905 79 218 0.0 1.0 0.00 0.00 0.00 77 1017.9
20260902170408 79 218 1.0 2.0 0.00 0.00 0.00 77 1017.9
20260902164905 80 192 1.0 2.0 0.00 0.00 0.00 76 1017.8
20260902164406 80 218 1.0 3.0 0.00 0.00 0.00 76 1017.8
20260902163905 80 163 1.0 2.0 0.00 0.00 0.00 76 1017.7
20260902163405 80 259 1.0 3.0 0.00 0.00 0.00 76 1017.8
20260902161905 81 227 2.0 3.0 0.00 0.00 0.00 75 1017.8
20260902161405 81 233 1.0 3.0 0.00 0.00 0.00 75 1017.8
20260902160906 81 239 1.0 3.0 0.00 0.00 0.00 74 1017.9
20260902160405 82 238 1.0 3.0 0.00 0.00 0.00 74 1017.8
20260902154905 82 226 1.0 5.0 0.00 0.00 0.00 74 1018.0
20260902154405 82 233 2.0 3.0 0.00 0.00 0.00 74 1018.0
20260902153905 82 210 1.0 3.0 0.00 0.00 0.00 74 1017.9
20260902153405 82 237 1.0 3.0 0.00 0.00 0.00 73 1018.0
20260902151405 82 251 1.0 3.0 0.00 0.00 0.00 73 1018.2
20260902150405 83 239 2.0 3.0 0.00 0.00 0.00 72 1018.2
20260902144905 83 202 2.0 3.0 0.00 0.00 0.00 72 1018.4
20260902143405 83 218 2.0 5.0 0.00 0.00 0.00 72 1018.2
20260902141405 83 247 1.0 3.0 0.00 0.00 0.00 73 1018.3
20260902140905 83 201 2.0 5.0 0.00 0.00 0.00 73 1018.4
20260902134904 83 254 2.0 3.0 0.00 0.00 0.00 72 1018.6
20260902134404 83 206 1.0 3.0 0.00 0.00 0.00 74 1018.6
20260902130905 84 241 2.0 3.0 0.00 0.00 0.00 71 1018.8
20260902130405 84 245 2.0 5.0 0.00 0.00 0.00 72 1018.9
20260902124905 84 142 2.0 6.0 0.00 0.00 0.00 71 1018.9
20260902124405 84 145 1.0 5.0 0.00 0.00 0.00 73 1019.0
20260902123905 83 225 2.0 5.0 0.00 0.00 0.00 73 1019.0
20260902123404 83 232 2.0 6.0 0.00 0.00 0.00 72 1019.1
20260902121904 83 233 2.0 6.0 0.00 0.00 0.00 72 1019.2
20260902121405 83 235 3.0 7.0 0.00 0.00 0.00 71 1019.2
20260902120904 82 217 2.0 5.0 0.00 0.00 0.00 72 1019.2
20260902120404 83 209 2.0 6.0 0.00 0.00 0.00 72 1019.2
20260902114906 82 243 3.0 6.0 0.00 0.00 0.00 74 1019.2
20260902114406 82 237 3.0 3.0 0.00 0.00 0.00 71 1019.3
20260902113904 82 232 3.0 6.0 0.00 0.00 0.00 73 1019.3
20260902113405 83 240 3.0 5.0 0.00 0.00 0.00 72 1019.3
20260902111905 81 226 2.0 3.0 0.00 0.00 0.00 74 1019.5
20260902111405 81 220 1.0 3.0 0.00 0.00 0.00 75 1019.5
20260902110904 81 226 1.0 2.0 0.00 0.00 0.00 75 1019.4
20260902110404 81 187 1.0 3.0 0.00 0.00 0.00 75 1019.5
20260902104905 83 164 1.0 3.0 0.00 0.00 0.00 73 1019.6
20260902104404 82 187 2.0 5.0 0.00 0.00 0.00 74 1019.6
20260902103904 83 155 1.0 5.0 0.00 0.00 0.00 72 1019.6